Погода в Таборе

Чехия     49°24′40″N   14°40′26″E
темп.,
°C
ветер,
м/с
пор.,
м/с
влажн.,
%
обл.,
%
осадки,
мм/ч
давл.,
гПа
погр.,
м
28 февраля, вс
вс2801:00−1ссв239343 0.0 103949
04:00−1с229026 0.0 103825
07:00−1с119115 0.0 103821
10:00+2с237067 0.0 1037523
13:00+5ссв225650 0.0 1036625
16:00+6с33600 0.0 1034541
19:00+1с23760 0.0 103522
22:00+1с22790 0.0 103622
1 марта, пн
пн101:000с12910 0.0 103622
04:000с22978 0.0 103523
07:00+1св239740 0.0 1036133
10:00+5в237538 0.0 1036384
13:00+8в236019 0.0 1035757
16:00+8в23640 0.0 1033763
19:00+3в12840 0.0 103522
22:00+2вюв11860 0.0 103522
2 марта, вт
вт201:00+1вюв12870 0.0 103522
04:00+1вюв11870 0.0 103422
07:00+1вюв12870 0.0 103522
10:00+6юв22620 0.0 1034345
13:00+10юв23480 0.0 1033639
16:00+10юв23550 0.0 1032503
19:00+4ююв23800 0.0 103325
22:00+3юв228423 0.0 103322
3 марта, ср
ср301:00+2ююв118525 0.0 103322
04:00+1ю228811 0.0 103322
07:00+1ююз22926 0.0 103226
10:00+6зюз23710 0.0 1032280
13:00+10з34550 0.0 1029763
16:00+10з34570 0.0 1027795
19:00+5юз11770 0.0 102722
22:00+5юз228046 0.0 102622
4 марта, чт
чт401:00+3ююз238241 0.0 102424
04:00+3ююз238418 0.0 102325
07:00+3ююз238457 0.0 102134
10:00+8ююз346385 0.0 1019215
13:00+11з354786 0.0 1016672
16:00+10з4665100 0.0 1014891
19:00+7з61084100 0.1 1013369
22:00+5зюз4118998 0.2 1013480